Location: Kolin
(50.0330°N, 15.2000°E)
Time: 08:23:03
(UTC+02:00)

Gurwin Techsat 1B - Pass Details

Date: 16 August 2022
Orbit: 811 x 814 km, 98.8° (Epoch: 25 September)

Event Time Altitude Azimuth Distance (km) Brightness Sun altitude
Rises 03:02:09 0° 21° (NNE) 3,351 13.3 -21.1°
Reaches altitude 10° 03:04:41 10° 29° (NNE) 2,414 12.3 -20.9°
Maximum altitude 03:09:38 38° 97° (E) 1,234 9.7 -20.4°
Enters shadow 03:13:06 18° 156° (SSE) 1,903 10.2 -20.1°
